Location: Chilton Park
(37.7711°N, 100.0276°W)
Time: 17:42:43
(UTC+00:00)

deb r/b Ablestar - Visible Passes

Search period start: 06 October 2022 00:00
Search period end: 16 October 2022 00:00
Orbit: 785 x 874 km, 66.9° (Epoch: 05 October)

Date Brightness Start Highest point End Pass type
(mag) Time Alt. Az. Time Alt. Az. Time Alt. Az.
06 Oct ? 11:55:08 10° N 12:00:02 27° NE 12:04:56 10° ESE visible
07 Oct ? 11:36:12 10° N 11:40:57 25° NE 11:45:41 10° ESE visible
08 Oct ? 11:17:17 10° N 11:21:52 23° NE 11:26:27 10° E visible
09 Oct ? 10:58:23 10° N 11:02:46 21° NE 11:07:09 10° E visible
10 Oct ? 01:45:57 10° SSE 01:46:23 12° SSE 01:46:23 12° SSE visible
10 Oct ? 10:39:29 10° N 10:43:40 20° NE 10:47:50 10° E visible
11 Oct ? 01:27:10 10° SSE 01:29:55 21° SE 01:29:55 21° SE visible
11 Oct ? 03:10:01 10° SW 03:11:36 19° WSW 03:11:36 19° WSW visible
11 Oct ? 10:20:36 10° N 10:24:33 18° NE 10:28:31 10° E visible
11 Oct ? 12:03:37 10° NNW 12:09:28 77° WSW 12:15:18 10° SSE visible
12 Oct ? 01:08:25 10° SSE 01:12:24 21° ESE 01:13:28 20° E visible
12 Oct ? 02:50:53 10° SW 02:55:09 44° W 02:55:09 44° W visible
12 Oct ? 10:01:43 10° N 10:05:26 17° NE 10:09:08 10° E visible
12 Oct ? 11:44:34 10° NNW 11:50:27 84° WSW 11:56:18 10° SSE visible
13 Oct ? 00:49:43 10° SSE 00:53:25 19° ESE 00:56:54 11° ENE visible
13 Oct ? 02:31:46 10° SW 02:37:09 56° WNW 02:38:35 44° N visible
13 Oct ? 09:42:53 10° N 09:46:18 16° NE 09:49:45 10° E visible
13 Oct ? 11:25:32 10° NNW 11:31:25 89° ENE 11:37:16 10° SSE visible
14 Oct ? 00:31:03 10° SE 00:34:27 17° ESE 00:37:53 10° ENE visible
14 Oct ? 02:12:40 10° SW 02:18:06 61° WNW 02:21:45 22° NNE visible
14 Oct ? 04:02:19 10° NW 04:03:24 11° NW 04:03:24 11° NW visible
14 Oct ? 09:24:03 10° N 09:27:11 14° NE 09:30:18 10° ENE visible
14 Oct ? 11:06:29 10° NNW 11:12:22 81° ENE 11:18:13 10° SSE visible
15 Oct ? 01:53:35 10° SW 01:59:03 68° WNW 02:04:37 10° NNE visible
15 Oct ? 03:42:30 10° WNW 03:44:26 12° NW 03:46:14 10° NNW visible
15 Oct ? 09:06:05 12° NNE 09:08:03 13° NE 09:10:49 10° ENE visible
15 Oct ? 10:47:45 11° NNW 10:53:19 74° ENE 10:59:10 10° SSE visible
